Find Starlink 5936

NORAD ID: 56011 Int'l Des: 2023-042 Owner: SPXS Country: US Constellation: starlink operational
LEOCIRCULAR

Current View

Loading 3D Globe...

About Starlink 5936

Description loading...

Upcoming Passes

Passes for default location (London). Set your location on the main map for personalized predictions.

Altitude History

Loading altitude history...

Two-Line Element Set

1 56011U 23042AB 26150.79340110 -.00001199 00000-0 -34064-4 0 9996
2 56011 43.0052 301.4284 0001700 257.3677 102.6984 15.27568596175597
Epoch: May 30, 2026 • Age: 21 hours

Current Status

Altitude 490.7 km
Velocity 7.62 km/s
Sub-Earth Point -31.54°S, 21.43°E
Launch Date Mar 24, 2023
Age 3.1 years
Type internet

Technical Details

Classification Payload
Mass 305.00 kg
Dry Mass 290.00 kg
Total Mass 305.00 kg
Length 0.20 m
Diameter 2.80 m
Span 9.00 m
Shape Box + pan
Manufacturer SPXS
Bus Type Starlink
Phase Status In Orbit
Owner/State SPXS/US

Most Searched